Regional Weather Roundup
Issued by NWS

Home | Current Version | Previous Version | Text Only | Print | Product List | Glossary Off
Versions: 1 2 3 4 5 6 7 8 9 10 11 12 13 14 15 16 17 18 19 20 21 22 23 24 25 26 27 28 29 30 31 32 33 34 35 36 37 38 39 40 41 42 43 44 45 46 47 48 49 50

000
ASUS43 KMKX 200821
RWRWI

WISCONSIN REGIONAL WEATHER ROUNDUP
NATIONAL WEATHER SERVICE MILWAUKEE/SULLIVAN WI
300 AM CDT FRI OCT 20 2017

NOTE: "FAIR" INDICATES FEW OR NO CLOUDS BELOW 12,000 FEET WITH NO
SIGNIFICANT WEATHER AND/OR OBSTRUCTIONS TO VISIBILITY.

WIZ001-002-006>008-014>016-023>028-200900-
NORTHWEST WISCONSIN

CITY           SKY/WX    TMP DP  RH WIND       PRES   REMARKS
SUPERIOR ARPT  FAIR      43  38  82 CALM      29.87F
ASHLAND        FAIR      54  38  54 S6        29.92F
HAYWARD        FAIR      56  43  61 S9        29.95S
SIREN          FAIR      57  45  63 S7        29.91F
CUMBERLAND     FAIR      50  37  62 SE7       29.95S
RICE LAKE      FAIR      47  38  69 CALM      29.97F
CHETEK         FAIR      49  38  66 E9        29.97S
LADYSMITH      FAIR      52  38  57 SE3       30.00S
EAU CLAIRE     FAIR      46  38  73 CALM      29.97F
MENOMONIE      FAIR      47  40  77 SE7       29.97S
NEW RICHMOND   FAIR      53  44  72 S7        29.93F
OSCEOLA        FAIR      51  45  79 SE3       29.95S
$$

WIZ003>005-009-010-017-018-200900-
NORTH CENTRAL WISCONSIN

CITY           SKY/WX    TMP DP  RH WIND       PRES   REMARKS
MANITOWISH WTR FAIR      48  39  72 S5        29.99S
ARBOR VITAE    FAIR      53  38  58 S6        30.00S
WOODRUFF       FAIR      53  38  58 S6        30.00S
RHINELANDER    FAIR      55  37  50 SW8       30.02F
EAGLE RIVER    FAIR      54  34  48 SW6       30.01S
LAND O LAKES   FAIR      44  35  70 S3        30.02S
PHILLIPS       FAIR      50  38  64 S6        29.99S
TOMAHAWK       FAIR      43  36  76 CALM      30.02F
MEDFORD        FAIR      45  36  71 S8        30.01F
MERRILL        FAIR      52  36  54 CALM      30.03F
$$

WIZ029-030-035-036-043>047-200900-
CENTRAL WISCONSIN

CITY           SKY/WX    TMP DP  RH WIND       PRES   REMARKS
WAUSAU         FAIR      50  36  58 SE7       30.02F
MOSINEE        FAIR      46  37  71 S8        30.04F
MARSHFIELD     FAIR      48  35  60 S5        30.02F
STEVENS POINT  FAIR      47  35  62 CALM      30.05S
WAUPACA        FAIR      48  37  66 CALM      30.06S
WAUTOMA        FAIR      40  38  93 CALM      30.07S
WISC RAPIDS    FAIR      51  37  58 S6        30.05S
CAMP DOUGLAS   FAIR      49  42  77 CALM      30.04R
$$

WIZ011>013-019>022-031-037>040-048>050-200900-
NORTHEAST WISCONSIN

CITY           SKY/WX    TMP DP  RH WIND       PRES   REMARKS
ANTIGO         FAIR      49  37  64 SW7       30.05S
SHAWANO        FAIR      50  37  59 CALM      30.06S
OCONTO         FAIR      47  37  66 CALM      30.06S
STURGEON BAY   FAIR      50  36  58 S7        30.08S
GREEN BAY      FAIR      47  41  80 S5        30.07S
MANITOWOC      FAIR      49  35  58 S8        30.10S
APPLETON       FAIR      52  34  50 S9        30.06S
CLINTONVILLE   FAIR      46  36  66 CALM      30.06S
OSHKOSH        FAIR      51  39  63 S12       30.07F
$$

WIZ032>034-041-042-053>061-200900-
SOUTHWEST WISCONSIN

CITY           SKY/WX    TMP DP  RH WIND       PRES   REMARKS
LA CROSSE      FAIR      58  47  66 S9        30.01S
SPARTA         FAIR      58  47  66 CALM      30.03S
VIROQUA        FAIR      56  47  72 S8        30.04S
BOSCOBEL       FAIR      44  41  89 CALM      30.06S FOG
PRAIRIE DU CHI FAIR      53  46  77 CALM      30.05S
PLATTEVILLE    FAIR      54  50  87 SE6       30.08S
$$

WIZ056-057-062-063-064-067-068-200900-
SOUTH CENTRAL WISCONSIN

CITY           SKY/WX    TMP DP  RH WIND       PRES   REMARKS
REEDSBURG      FAIR      53  42  64 S5        30.06S
BARABOO/DELLS  FAIR      54  42  62 S7        30.06S
LONE ROCK      FAIR      47  42  83 CALM      30.07S
MINERAL POINT  FAIR      52  45  76 SE8       30.08S
MADISON        FAIR      54  40  59 S8        30.09S
MIDDLETON      FAIR      54  40  58 S6        30.09S
WATERTOWN      FAIR      52  41  66 S6        30.09F
MONROE         FAIR      52  43  71 S10       30.10S
JANESVILLE     FAIR      52  41  66 CALM      30.10F
$$

WIZ051-052-058>065-066-070>072-200900-
SOUTHEAST WISCONSIN

CITY           SKY/WX    TMP DP  RH WIND       PRES   REMARKS
MILWAUKEE      FAIR      53  34  48 SW3       30.12S
WAUKESHA       FAIR      50  32  50 S7        30.12F
MILWAUKEE/TIMM FAIR      52  28  40 SW3       30.12S
RACINE         FAIR      56  36  47 S7        30.13F
BURLINGTON     FAIR      41  39  93 CALM      30.12F
KENOSHA        FAIR      52  37  56 S6        30.13F
FOND DU LAC    FAIR      56  40  55 S8        30.08F
SHEBOYGAN      FAIR      43  38  82 CALM      30.10F
WEST BEND      FAIR      52  32  46 S5        30.10S
JUNEAU         FAIR      51  38  61 S7        30.10F
$$

LSZ147-162-200900-
LAKE SUPERIOR

STATION/POSITION TIME  TEMP    WIND        PRES    WAVE
                       AIR SEA DIR/SP/G            HT/PER
                 (UTC) (F)     (DEG/KT/KT) (MB)    (FT/S)
W MID LAKE BUOY  0750   56 52              1012.6F   1/ 3
DEVILS ISLAND    0800   58     210/  3/  3 1012.4F
SAXON HARBOR     0740   63     180/  7/ 13 1012.5F
$$

LMZ867-665-643>646-200900-
LAKE MICHIGAN

STATION/POSITION TIME  TEMP    WIND        PRES    WAVE
                       AIR SEA DIR/SP/G            HT/PER
                 (UTC) (F)     (DEG/KT/KT) (MB)    (FT/S)
S GREEN BAY BUOY 0730   58 58  190/ 10/ 12 1017.7F
N MID LAKE BUOY  0750   59 58  200/ 17/ 21 1018.7S   5/ 6
NORTHPORT PIER   0740   53     160/  4/  8 1017.9F
KEWAUNEE LAKESHO 0754   53     190/  8/ 10 1017.9F
SHEBOYGAN LAKESH 0800   54     170/  8/  9 1019.4F
PORT WASHINGTON  0740   55     240/  4/  7 1020.7S
ATWATER BUOY     0609   57 53  180/ 10/ 12 1020.1S
MILWAUKEE LAKESH 0800   56     220/  7/  8   N/A
S MID LAKE BUOY  0750   62 60  140/ 14/ 16 1020.6F   1/ 3
KENOSHA   LAKESH 0800   56     190/  6/  9 1020.0
$$

TC  - TEMPERATURE IN CELSIUS
VSB - VISIBILITY IN STATUTE MILES
WCI - WIND CHILL INDEX
HX  - HEAT INDEX





USA.gov is the U.S. government's official web portal to all federal, state and local government web resources and services.